Estación Meteorológica Peña el Pijo (Robertgarden) [ 09/30/20 01:53:41 CEST ]

Fecha Hora Presion(HPa) Temp (°C) Humedad % Rocio (°C) Viento ( m/s) Direccion Lluvia 1Hora(mm) Lluvia 24H(mm) LLuvia Total(mm)
2020-May-17 01:09:20 1010.300 - - - - W     39.88
2020-May-17 02:09:05 1010.100 - - - - W     39.88
2020-May-17 03:09:16 1009.700 - - - - W     39.88
2020-May-17 04:09:03 1009.400 - - - - W     39.88
2020-May-17 05:09:54 1009.500 - - - - W     39.88
2020-May-17 06:09:14 1009.600 - - - - W     39.88
2020-May-17 07:09:47 1009.900 - - - - W     39.88
2020-May-17 08:09:26 1010.400 - - - - W     39.88
2020-May-17 09:09:40 1010.800 - - - - W     39.88
2020-May-17 10:09:39 1011.000 - - - - W     39.88
2020-May-17 11:09:13 1011.300 - - - - W     39.88
2020-May-17 12:09:04 1011.300 - - - - W     39.88
2020-May-17 13:09:04 1011.400 - - - - W     39.88
2020-May-17 14:09:20 1011.400 - - - - W     39.88
2020-May-17 15:09:10 1011.500 - - - - W     39.88
2020-May-17 16:09:36 1011.100 - - - - W     39.88
2020-May-17 17:09:01 1010.500 - - - - W     39.88
2020-May-17 18:09:38 1011.400 - - - - W     39.88
2020-May-17 19:09:14 1011.800 - - - - W     39.88
2020-May-17 20:09:10 1012.500 - - - - W     39.88
2020-May-17 21:08:56 1012.300 - - - - W     39.88
2020-May-17 22:09:09 1012.800 - - - - W     39.88
2020-May-17 23:09:17 1013.700 - - - - W     39.88

Temperatura Máxima:    Temperatura Mínima:
Presión Máxima:1013.700 Hpa    Presión Mínima:1009.400 Hpa


Volver